TimeEDT,TemperatureF,Dew PointF,Humidity,Sea Level PressureIn,VisibilityMPH,Wind Direction,Wind SpeedMPH,Gust SpeedMPH,PrecipitationIn,Events,Conditions,WindDirDegrees,DateUTC
12:51 AM,48.9,44.1,83,29.78,10.0,South,17.3,25.3,N/A,,Clear,190,2013-04-25 04:51:00
1:51 AM,48.0,44.1,86,29.77,8.0,South,15.0,29.9,N/A,,Partly Cloudy,190,2013-04-25 05:51:00
2:51 AM,48.0,45.0,89,29.77,9.0,South,12.7,-,N/A,,Mostly Cloudy,190,2013-04-25 06:51:00
3:51 AM,48.0,45.0,89,29.79,9.0,SW,3.5,-,N/A,,Partly Cloudy,220,2013-04-25 07:51:00
4:51 AM,50.0,46.9,89,29.83,7.0,South,6.9,-,0.01,Rain,Light Rain,180,2013-04-25 08:51:00
5:51 AM,52.0,48.9,89,29.85,10.0,SSW,9.2,-,0.01,Rain,Light Rain,210,2013-04-25 09:51:00
6:51 AM,53.1,43.0,69,29.89,10.0,West,13.8,-,0.00,,Partly Cloudy,260,2013-04-25 10:51:00
7:51 AM,51.1,35.1,54,29.94,10.0,West,15.0,-,N/A,,Clear,270,2013-04-25 11:51:00
8:51 AM,52.0,35.1,53,29.97,10.0,West,10.4,-,N/A,,Clear,270,2013-04-25 12:51:00
9:51 AM,55.0,36.0,49,30.00,10.0,West,9.2,-,N/A,,Clear,280,2013-04-25 13:51:00
10:51 AM,59.0,30.9,35,30.03,10.0,NNW,16.1,20.7,N/A,,Clear,330,2013-04-25 14:51:00
11:51 AM,60.1,30.0,32,30.04,10.0,NNW,16.1,23.0,N/A,,Partly Cloudy,340,2013-04-25 15:51:00
12:51 PM,60.1,27.0,28,30.06,10.0,NW,11.5,21.9,N/A,,Partly Cloudy,320,2013-04-25 16:51:00
1:51 PM,63.0,28.0,27,30.07,10.0,WNW,15.0,-,N/A,,Partly Cloudy,290,2013-04-25 17:51:00
2:51 PM,63.0,28.0,27,30.08,10.0,NW,10.4,16.1,N/A,,Clear,310,2013-04-25 18:51:00
3:51 PM,63.0,26.1,25,30.08,10.0,NNW,9.2,-,N/A,,Clear,330,2013-04-25 19:51:00
4:51 PM,60.1,30.9,33,30.10,10.0,SSE,10.4,-,N/A,,Clear,160,2013-04-25 20:51:00
5:51 PM,59.0,30.0,33,30.13,10.0,SE,9.2,-,N/A,,Clear,140,2013-04-25 21:51:00
6:51 PM,55.0,33.1,43,30.15,10.0,SSE,5.8,-,N/A,,Clear,160,2013-04-25 22:51:00
7:51 PM,51.1,35.1,54,30.18,10.0,Calm,Calm,-,N/A,,Mostly Cloudy,0,2013-04-25 23:51:00
8:51 PM,48.9,35.1,59,30.22,10.0,North,3.5,-,N/A,,Scattered Clouds,350,2013-04-26 00:51:00
9:51 PM,50.0,30.0,46,30.25,10.0,NNE,4.6,-,N/A,,Partly Cloudy,20,2013-04-26 01:51:00
10:51 PM,48.0,26.1,42,30.27,10.0,North,5.8,-,N/A,,Clear,10,2013-04-26 02:51:00
11:51 PM,46.9,25.0,42,30.29,10.0,NNW,5.8,-,N/A,,Clear,330,2013-04-26 03:51:00